Wetterdaten: aktuell Samstag, 20.07.2019 09:30
Datum Zeit Temp. I. Temp. 2m Temp. 5cm Temp. -10cm Feuchte I. Feuchte 2m Luftdruck Regen Wind Richtung Richtung Taupunkt Windchill Windben
20.07.2019 09:30 22,8 C 22,7 C 27,8 C 20,2 C 58 % 61 % 1019,5 hPa 0,0 l/m 0,0 km/h (0 Bft) W-NW 292 14,8 C 22,7 C 0,0 km/h (0 Bft)
20.07.2019 09:28 22,8 C 22,6 C 27,9 C 20,2 C 58 % 62 % 1019,5 hPa 0,0 l/m 0,0 km/h (0 Bft) W-NW 292 14,9 C 22,6 C 0,0 km/h (0 Bft)
20.07.2019 09:26 22,8 C 22,6 C 28,2 C 20,3 C 58 % 61 % 1019,5 hPa 0,0 l/m 0,0 km/h (0 Bft) W-SW 247 14,7 C 22,6 C 0,0 km/h (0 Bft)
20.07.2019 09:24 22,8 C 22,5 C 27,6 C 20,3 C 58 % 61 % 1019,5 hPa 0,0 l/m 0,0 km/h (0 Bft) N 360 14,6 C 22,5 C 0,0 km/h (0 Bft)
20.07.2019 09:22 22,8 C 22,4 C 27,5 C 20,2 C 58 % 62 % 1019,5 hPa 0,0 l/m 0,0 km/h (0 Bft) O-SO 112 14,8 C 22,4 C 0,0 km/h (0 Bft)
20.07.2019 09:20 22,8 C 22,2 C 26,7 C 20,2 C 58 % 62 % 1019,5 hPa 0,0 l/m 0,0 km/h (0 Bft) O 90 14,6 C 22,2 C 0,0 km/h (0 Bft)
20.07.2019 09:18 22,8 C 22,2 C 27,2 C 20,2 C 58 % 63 % 1019,5 hPa 0,0 l/m 0,0 km/h (0 Bft) NW 315 14,8 C 22,2 C 0,0 km/h (0 Bft)
20.07.2019 09:16 22,8 C 22,1 C 27,5 C 20,2 C 58 % 63 % 1019,5 hPa 0,0 l/m 0,0 km/h (0 Bft) SW 225 14,7 C 22,1 C 0,0 km/h (0 Bft)
20.07.2019 09:14 22,8 C 22,2 C 27,4 C 20,2 C 58 % 62 % 1019,5 hPa 0,0 l/m 0,0 km/h (0 Bft) N-NW 337 14,6 C 22,2 C 0,0 km/h (0 Bft)
20.07.2019 09:12 22,8 C 22,1 C 27,3 C 20,2 C 58 % 63 % 1019,5 hPa 0,0 l/m 0,0 km/h (0 Bft) S-SO 157 14,7 C 22,1 C 0,0 km/h (0 Bft)
20.07.2019 09:10 22,8 C 22,0 C 26,8 C 20,1 C 58 % 64 % 1019,5 hPa 0,0 l/m 0,0 km/h (0 Bft) O-NO 67 14,9 C 22,0 C 0,0 km/h (0 Bft)
20.07.2019 09:08 22,8 C 21,8 C 26,6 C 20,1 C 58 % 63 % 1019,5 hPa 0,0 l/m 0,0 km/h (0 Bft) SO 135 14,4 C 21,8 C 0,0 km/h (0 Bft)
20.07.2019 09:06 22,8 C 21,7 C 26,3 C 20,1 C 58 % 68 % 1019,5 hPa 0,0 l/m 0,0 km/h (0 Bft) S-SW 202 15,5 C 21,7 C 0,0 km/h (0 Bft)
20.07.2019 09:04 22,8 C 21,6 C 26,1 C 20,1 C 58 % 63 % 1019,5 hPa 0,0 l/m 0,0 km/h (0 Bft) SW 225 14,2 C 21,6 C 0,0 km/h (0 Bft)
20.07.2019 09:02 22,8 C 21,6 C 26,3 C 20,0 C 58 % 65 % 1019,5 hPa 0,0 l/m 0,0 km/h (0 Bft) W-NW 292 14,7 C 21,6 C 0,0 km/h (0 Bft)
20.07.2019 09:00 22,8 C 21,7 C 26,6 C 20,1 C 58 % 64 % 1019,5 hPa 0,0 l/m 0,0 km/h (0 Bft) W-SW 247 14,6 C 21,7 C 0,0 km/h (0 Bft)
20.07.2019 08:58 22,8 C 21,3 C 26,4 C 20,1 C 58 % 69 % 1019,4 hPa 0,0 l/m 0,0 km/h (0 Bft) W-SW 247 15,4 C 21,3 C 0,0 km/h (0 Bft)
20.07.2019 08:56 22,8 C 21,2 C 25,6 C 20,1 C 58 % 69 % 1019,4 hPa 0,0 l/m 0,0 km/h (0 Bft) SW 225 15,3 C 21,2 C 0,0 km/h (0 Bft)
20.07.2019 08:54 22,8 C 21,1 C 24,9 C 20,1 C 59 % 66 % 1019,4 hPa 0,0 l/m 0,0 km/h (0 Bft) O 90 14,5 C 21,1 C 0,0 km/h (0 Bft)
20.07.2019 08:52 22,8 C 21,1 C 24,9 C 20,0 C 58 % 65 % 1019,4 hPa 0,0 l/m 0,0 km/h (0 Bft) SO 135 14,3 C 21,1 C 0,0 km/h (0 Bft)
20.07.2019 08:50 22,8 C 21,0 C 24,9 C 20,0 C 58 % 65 % 1019,4 hPa 0,0 l/m 0,2 km/h (0 Bft) S-SO 157 14,2 C 21,0 C 0,0 km/h (0 Bft)
20.07.2019 08:48 22,8 C 20,9 C 24,4 C 20,0 C 58 % 67 % 1019,4 hPa 0,0 l/m 0,2 km/h (0 Bft) W 270 14,5 C 20,9 C 0,0 km/h (0 Bft)
20.07.2019 08:46 22,8 C 20,7 C 24,1 C 20,0 C 59 % 66 % 1019,4 hPa 0,0 l/m 0,3 km/h (0 Bft) W-NW 292 14,1 C 20,7 C 0,0 km/h (0 Bft)
20.07.2019 08:44 22,8 C 20,6 C 23,5 C 19,9 C 59 % 68 % 1019,4 hPa 0,0 l/m 0,3 km/h (0 Bft) W-NW 292 14,5 C 20,6 C 0,0 km/h (0 Bft)
20.07.2019 08:42 22,8 C 20,5 C 23,7 C 19,9 C 59 % 68 % 1019,4 hPa 0,0 l/m 0,5 km/h (0 Bft) W-SW 247 14,4 C 20,5 C 3,3 km/h (1 Bft)
20.07.2019 08:40 22,8 C 20,5 C 23,6 C 20,0 C 59 % 68 % 1019,4 hPa 0,0 l/m 0,8 km/h (0 Bft) S-SO 157 14,4 C 20,5 C 3,3 km/h (1 Bft)
20.07.2019 08:38 22,8 C 20,5 C 23,7 C 20,0 C 59 % 69 % 1020,0 hPa 0,0 l/m 0,8 km/h (0 Bft) W-SW 247 14,6 C 20,5 C 0,0 km/h (0 Bft)
20.07.2019 08:36 22,8 C 20,4 C 23,4 C 20,0 C 59 % 70 % 1020,0 hPa 0,0 l/m 1,0 km/h (0 Bft) SO 135 14,7 C 20,4 C 1,9 km/h (1 Bft)
20.07.2019 08:34 22,7 C 20,2 C 23,3 C 19,9 C 59 % 69 % 1020,0 hPa 0,0 l/m 1,1 km/h (1 Bft) W 270 14,3 C 20,2 C 2,1 km/h (1 Bft)
20.07.2019 08:32 22,7 C 20,1 C 23,1 C 19,9 C 59 % 70 % 1020,0 hPa 0,0 l/m 1,1 km/h (1 Bft) W-SW 247 14,5 C 20,1 C 3,5 km/h (1 Bft)
20.07.2019 08:30 22,7 C 20,0 C 22,6 C 19,9 C 59 % 70 % 1020,0 hPa 0,0 l/m 1,3 km/h (1 Bft) W-SW 247 14,4 C 20,0 C 3,5 km/h (1 Bft)
20.07.2019 08:28 22,7 C 19,8 C 22,2 C 19,9 C 59 % 72 % 1020,0 hPa 0,0 l/m 1,4 km/h (1 Bft) S-SW 202 14,6 C 19,8 C 2,7 km/h (1 Bft)
20.07.2019 08:26 22,7 C 19,8 C 21,8 C 19,9 C 59 % 72 % 1020,0 hPa 0,0 l/m 1,4 km/h (1 Bft) SO 135 14,6 C 19,8 C 2,1 km/h (1 Bft)
20.07.2019 08:24 22,7 C 19,7 C 21,3 C 19,9 C 59 % 72 % 1020,0 hPa 0,0 l/m 1,8 km/h (1 Bft) SW 225 14,5 C 19,7 C 2,1 km/h (1 Bft)
20.07.2019 08:22 22,8 C 19,5 C 21,5 C 19,9 C 59 % 73 % 1020,0 hPa 0,0 l/m 1,8 km/h (1 Bft) S-SW 202 14,5 C 19,5 C 3,9 km/h (1 Bft)
20.07.2019 08:20 22,7 C 19,4 C 21,4 C 19,9 C 59 % 74 % 1020,0 hPa 0,0 l/m 1,9 km/h (1 Bft) SW 225 14,6 C 19,4 C 4,6 km/h (1 Bft)
20.07.2019 08:18 22,7 C 19,3 C 20,3 C 19,8 C 59 % 74 % 1019,3 hPa 0,0 l/m 2,1 km/h (1 Bft) SW 225 14,5 C 19,3 C 4,6 km/h (1 Bft)
20.07.2019 08:16 22,7 C 19,1 C 20,0 C 19,8 C 59 % 74 % 1019,3 hPa 0,0 l/m 2,1 km/h (1 Bft) S-SO 157 14,4 C 19,1 C 4,6 km/h (1 Bft)
20.07.2019 08:14 22,7 C 18,9 C 19,9 C 19,8 C 58 % 76 % 1019,3 hPa 0,0 l/m 2,3 km/h (1 Bft) SO 135 14,6 C 18,9 C 4,6 km/h (1 Bft)
20.07.2019 08:12 22,7 C 18,8 C 19,5 C 19,8 C 58 % 78 % 1019,3 hPa 0,0 l/m 2,1 km/h (1 Bft) SO 135 14,9 C 18,8 C 3,9 km/h (1 Bft)
20.07.2019 08:10 22,7 C 18,6 C 19,3 C 19,8 C 58 % 80 % 1019,3 hPa 0,0 l/m 2,3 km/h (1 Bft) W-SW 247 15,1 C 18,6 C 3,9 km/h (1 Bft)
20.07.2019 08:08 22,7 C 18,5 C 19,2 C 19,8 C 58 % 80 % 1019,3 hPa 0,0 l/m 2,1 km/h (1 Bft) S-SO 157 15,0 C 18,5 C 6,0 km/h (2 Bft)
20.07.2019 08:06 22,7 C 18,3 C 19,2 C 19,9 C 58 % 80 % 1019,3 hPa 0,0 l/m 1,6 km/h (1 Bft) W-SW 247 14,8 C 18,3 C 4,4 km/h (1 Bft)
20.07.2019 08:04 22,7 C 18,2 C 19,3 C 19,9 C 58 % 81 % 1019,3 hPa 0,0 l/m 1,4 km/h (1 Bft) S-SW 202 14,9 C 18,2 C 4,4 km/h (1 Bft)
20.07.2019 08:02 22,7 C 18,0 C 19,1 C 19,9 C 58 % 81 % 1019,3 hPa 0,0 l/m 1,3 km/h (1 Bft) SO 135 14,7 C 18,0 C 4,4 km/h (1 Bft)
20.07.2019 08:00 22,7 C 17,8 C 18,8 C 19,9 C 58 % 82 % 1019,3 hPa 0,0 l/m 1,0 km/h (0 Bft) S-SO 157 14,7 C 17,8 C 4,4 km/h (1 Bft)
20.07.2019 07:58 22,7 C 17,7 C 18,6 C 19,9 C 58 % 82 % 1019,3 hPa 0,0 l/m 1,0 km/h (0 Bft) S-SW 202 14,6 C 17,7 C 2,7 km/h (1 Bft)
20.07.2019 07:56 22,7 C 17,6 C 18,6 C 19,9 C 58 % 82 % 1019,3 hPa 0,0 l/m 1,1 km/h (1 Bft) S-SO 157 14,5 C 17,6 C 2,9 km/h (1 Bft)
20.07.2019 07:54 22,7 C 17,5 C 18,7 C 19,9 C 58 % 82 % 1019,3 hPa 0,0 l/m 1,1 km/h (1 Bft) SO 135 14,4 C 17,5 C 2,9 km/h (1 Bft)
20.07.2019 07:52 22,7 C 17,4 C 18,8 C 19,9 C 58 % 82 % 1019,3 hPa 0,0 l/m 1,0 km/h (0 Bft) SW 225 14,3 C 17,4 C 2,3 km/h (1 Bft)
20.07.2019 07:50 22,8 C 17,3 C 18,8 C 19,9 C 58 % 83 % 1019,3 hPa 0,0 l/m 1,1 km/h (1 Bft) S-SO 157 14,4 C 17,3 C 4,2 km/h (1 Bft)
20.07.2019 07:48 22,8 C 17,3 C 18,9 C 19,8 C 58 % 83 % 1019,3 hPa 0,0 l/m 0,8 km/h (0 Bft) S-SO 157 14,4 C 17,3 C 4,2 km/h (1 Bft)
20.07.2019 07:46 22,8 C 17,2 C 19,0 C 19,8 C 58 % 83 % 1019,3 hPa 0,0 l/m 0,3 km/h (0 Bft) S-SO 157 14,3 C 17,2 C 2,1 km/h (1 Bft)
20.07.2019 07:44 22,8 C 17,1 C 19,1 C 19,8 C 58 % 83 % 1019,3 hPa 0,0 l/m 0,2 km/h (0 Bft) O 90 14,2 C 17,1 C 2,5 km/h (1 Bft)
20.07.2019 07:42 22,8 C 17,0 C 19,1 C 19,8 C 58 % 83 % 1019,3 hPa 0,0 l/m 0,2 km/h (0 Bft) O-SO 112 14,1 C 17,0 C 2,5 km/h (1 Bft)
20.07.2019 07:40 22,8 C 16,9 C 19,1 C 19,8 C 58 % 84 % 1019,3 hPa 0,0 l/m 0,0 km/h (0 Bft) O 90 14,2 C 16,9 C 0,0 km/h (0 Bft)
20.07.2019 07:38 22,8 C 16,8 C 19,1 C 19,8 C 58 % 84 % 1019,2 hPa 0,0 l/m 0,0 km/h (0 Bft) O 90 14,1 C 16,8 C 0,0 km/h (0 Bft)
20.07.2019 07:36 22,8 C 16,8 C 19,1 C 19,8 C 58 % 84 % 1019,2 hPa 0,0 l/m 0,0 km/h (0 Bft) O-SO 112 14,1 C 16,8 C 0,0 km/h (0 Bft)
20.07.2019 07:34 22,8 C 16,7 C 19,1 C 19,8 C 58 % 84 % 1019,2 hPa 0,0 l/m 0,0 km/h (0 Bft) S-SO 157 14,0 C 16,7 C 0,0 km/h (0 Bft)
20.07.2019 07:32 22,8 C 16,6 C 19,1 C 19,8 C 58 % 84 % 1019,2 hPa 0,0 l/m 0,0 km/h (0 Bft) W-NW 292 13,9 C 16,6 C 0,0 km/h (0 Bft)
20.07.2019 07:30 22,7 C 16,6 C 19,0 C 19,8 C 58 % 84 % 1019,2 hPa 0,0 l/m 0,0 km/h (0 Bft) NW 315 13,9 C 16,6 C 0,0 km/h (0 Bft)
20.07.2019 07:28 22,7 C 16,6 C 19,0 C 19,8 C 57 % 84 % 1019,2 hPa 0,0 l/m 0,0 km/h (0 Bft) S-SW 202 13,9 C 16,6 C 0,0 km/h (0 Bft)
20.07.2019 07:26 22,7 C 16,5 C 19,0 C 19,8 C 57 % 84 % 1019,2 hPa 0,0 l/m 0,0 km/h (0 Bft) W-NW 292 13,8 C 16,5 C 0,0 km/h (0 Bft)
20.07.2019 07:24 22,7 C 16,4 C 18,9 C 19,8 C 57 % 84 % 1019,2 hPa 0,0 l/m 0,0 km/h (0 Bft) SW 225 13,7 C 16,4 C 0,0 km/h (0 Bft)
20.07.2019 07:22 22,7 C 16,3 C 18,8 C 19,8 C 57 % 84 % 1019,2 hPa 0,0 l/m 0,0 km/h (0 Bft) W-SW 247 13,6 C 16,3 C 0,0 km/h (0 Bft)
20.07.2019 07:20 22,7 C 16,3 C 18,6 C 19,8 C 57 % 84 % 1019,2 hPa 0,0 l/m 0,0 km/h (0 Bft) SO 135 13,6 C 16,3 C 0,0 km/h (0 Bft)
20.07.2019 07:18 22,7 C 16,2 C 18,6 C 19,8 C 57 % 84 % 1019,1 hPa 0,0 l/m 0,0 km/h (0 Bft) SW 225 13,5 C 16,2 C 0,0 km/h (0 Bft)
20.07.2019 07:16 22,7 C 16,1 C 18,6 C 19,8 C 57 % 84 % 1019,1 hPa 0,0 l/m 0,0 km/h (0 Bft) W-SW 247 13,4 C 16,1 C 0,0 km/h (0 Bft)
20.07.2019 07:14 22,7 C 16,0 C 18,6 C 19,9 C 57 % 84 % 1019,1 hPa 0,0 l/m 0,0 km/h (0 Bft) W-NW 292 13,3 C 16,0 C 0,0 km/h (0 Bft)
20.07.2019 07:12 22,7 C 15,9 C 18,6 C 19,9 C 57 % 85 % 1019,1 hPa 0,0 l/m 0,0 km/h (0 Bft) W-SW 247 13,4 C 15,9 C 0,0 km/h (0 Bft)
20.07.2019 07:10 22,7 C 15,9 C 18,5 C 19,9 C 57 % 85 % 1019,1 hPa 0,0 l/m 0,0 km/h (0 Bft) NW 315 13,4 C 15,9 C 0,0 km/h (0 Bft)
20.07.2019 07:08 22,7 C 15,8 C 18,4 C 19,9 C 57 % 85 % 1019,1 hPa 0,0 l/m 0,0 km/h (0 Bft) S 180 13,3 C 15,8 C 0,0 km/h (0 Bft)
20.07.2019 07:06 22,6 C 15,6 C 18,3 C 19,9 C 57 % 85 % 1019,1 hPa 0,0 l/m 0,0 km/h (0 Bft) S-SO 157 13,1 C 15,6 C 0,0 km/h (0 Bft)
20.07.2019 07:04 22,6 C 15,5 C 18,4 C 19,9 C 57 % 85 % 1019,1 hPa 0,0 l/m 0,0 km/h (0 Bft) N-NW 337 13,0 C 15,5 C 0,0 km/h (0 Bft)
20.07.2019 07:02 22,7 C 15,4 C 18,3 C 19,9 C 57 % 85 % 1019,1 hPa 0,0 l/m 0,0 km/h (0 Bft) S-SW 202 12,9 C 15,4 C 0,0 km/h (0 Bft)
20.07.2019 07:00 22,6 C 15,4 C 18,1 C 19,9 C 57 % 85 % 1019,1 hPa 0,0 l/m 0,0 km/h (0 Bft) SO 135 12,9 C 15,4 C 0,0 km/h (0 Bft)
20.07.2019 06:58 22,7 C 15,3 C 18,1 C 19,9 C 57 % 85 % 1019,1 hPa 0,0 l/m 0,0 km/h (0 Bft) W-SW 247 12,8 C 15,3 C 0,0 km/h (0 Bft)
20.07.2019 06:56 22,6 C 15,2 C 18,2 C 19,9 C 57 % 85 % 1019,1 hPa 0,0 l/m 0,0 km/h (0 Bft) NW 315 12,7 C 15,2 C 0,0 km/h (0 Bft)
20.07.2019 06:54 22,7 C 15,2 C 18,2 C 19,9 C 57 % 85 % 1019,1 hPa 0,0 l/m 0,0 km/h (0 Bft) NO 45 12,7 C 15,2 C 0,0 km/h (0 Bft)
20.07.2019 06:52 22,6 C 15,1 C 18,2 C 19,9 C 57 % 85 % 1019,1 hPa 0,0 l/m 0,0 km/h (0 Bft) NO 45 12,6 C 15,1 C 0,0 km/h (0 Bft)
20.07.2019 06:50 22,6 C 15,0 C 18,1 C 19,9 C 57 % 85 % 1019,1 hPa 0,0 l/m 0,0 km/h (0 Bft) W-NW 292 12,5 C 15,0 C 0,0 km/h (0 Bft)
20.07.2019 06:48 22,7 C 15,0 C 18,1 C 19,9 C 57 % 85 % 1019,1 hPa 0,0 l/m 0,0 km/h (0 Bft) S 180 12,5 C 15,0 C 0,0 km/h (0 Bft)
20.07.2019 06:46 22,6 C 14,9 C 18,1 C 19,9 C 57 % 85 % 1019,1 hPa 0,0 l/m 0,0 km/h (0 Bft) SO 135 12,4 C 14,9 C 0,0 km/h (0 Bft)
20.07.2019 06:44 22,7 C 14,9 C 18,1 C 19,9 C 57 % 85 % 1019,1 hPa 0,0 l/m 0,0 km/h (0 Bft) NW 315 12,4 C 14,9 C 0,0 km/h (0 Bft)
20.07.2019 06:42 22,6 C 14,9 C 18,1 C 19,9 C 57 % 85 % 1019,1 hPa 0,0 l/m 0,0 km/h (0 Bft) W 270 12,4 C 14,9 C 0,0 km/h (0 Bft)
20.07.2019 06:40 22,7 C 14,9 C 18,1 C 19,9 C 57 % 85 % 1019,1 hPa 0,0 l/m 0,0 km/h (0 Bft) NW 315 12,4 C 14,9 C 0,0 km/h (0 Bft)
20.07.2019 06:38 22,6 C 14,9 C 17,9 C 19,9 C 57 % 85 % 1019,0 hPa 0,0 l/m 0,0 km/h (0 Bft) N-NW 337 12,4 C 14,9 C 0,0 km/h (0 Bft)
20.07.2019 06:36 22,6 C 14,8 C 17,8 C 19,9 C 57 % 85 % 1019,0 hPa 0,0 l/m 0,0 km/h (0 Bft) N-NW 337 12,3 C 14,8 C 0,0 km/h (0 Bft)
20.07.2019 06:34 22,6 C 14,8 C 17,8 C 19,9 C 57 % 85 % 1019,0 hPa 0,0 l/m 0,0 km/h (0 Bft) NW 315 12,3 C 14,8 C 0,0 km/h (0 Bft)
20.07.2019 06:32 22,7 C 14,7 C 17,6 C 19,9 C 57 % 85 % 1019,0 hPa 0,0 l/m 0,0 km/h (0 Bft) N-NW 337 12,2 C 14,7 C 0,0 km/h (0 Bft)
20.07.2019 06:30 22,6 C 14,7 C 17,6 C 19,9 C 57 % 85 % 1019,0 hPa 0,0 l/m 0,0 km/h (0 Bft) W-SW 247 12,2 C 14,7 C 0,0 km/h (0 Bft)
20.07.2019 06:28 22,6 C 14,7 C 17,6 C 20,0 C 57 % 85 % 1019,0 hPa 0,0 l/m 0,0 km/h (0 Bft) NW 315 12,2 C 14,7 C 0,0 km/h (0 Bft)
20.07.2019 06:26 22,7 C 14,6 C 17,5 C 20,0 C 57 % 85 % 1019,0 hPa 0,0 l/m 0,0 km/h (0 Bft) NW 315 12,1 C 14,6 C 0,0 km/h (0 Bft)
20.07.2019 06:24 22,6 C 14,6 C 17,5 C 20,0 C 57 % 85 % 1019,0 hPa 0,0 l/m 0,0 km/h (0 Bft) N-NW 337 12,1 C 14,6 C 0,0 km/h (0 Bft)
20.07.2019 06:22 22,6 C 14,5 C 17,5 C 20,0 C 57 % 84 % 1019,0 hPa 0,0 l/m 0,0 km/h (0 Bft) N-NW 337 11,8 C 14,5 C 0,0 km/h (0 Bft)
20.07.2019 06:20 22,6 C 14,5 C 17,4 C 20,0 C 57 % 84 % 1019,0 hPa 0,0 l/m 0,0 km/h (0 Bft) N-NW 337 11,8 C 14,5 C 0,0 km/h (0 Bft)
20.07.2019 06:18 22,6 C 14,4 C 17,3 C 20,0 C 57 % 84 % 1018,9 hPa 0,0 l/m 0,0 km/h (0 Bft) N-NW 337 11,7 C 14,4 C 0,0 km/h (0 Bft)
20.07.2019 06:16 22,6 C 14,4 C 17,4 C 20,0 C 57 % 84 % 1018,9 hPa 0,0 l/m 0,0 km/h (0 Bft) NW 315 11,7 C 14,4 C 0,0 km/h (0 Bft)
20.07.2019 06:14 22,6 C 14,4 C 17,5 C 20,0 C 57 % 84 % 1018,9 hPa 0,0 l/m 0,0 km/h (0 Bft) NW 315 11,7 C 14,4 C 0,0 km/h (0 Bft)
20.07.2019 06:12 22,6 C 14,4 C 17,6 C 20,0 C 57 % 84 % 1018,9 hPa 0,0 l/m 0,0 km/h (0 Bft) N-NW 337 11,7 C 14,4 C 0,0 km/h (0 Bft)
20.07.2019 06:10 22,6 C 14,4 C 17,6 C 20,0 C 57 % 84 % 1018,9 hPa 0,0 l/m 0,0 km/h (0 Bft) N-NW 337 11,7 C 14,4 C 0,0 km/h (0 Bft)
20.07.2019 06:08 22,6 C 14,4 C 17,6 C 20,0 C 57 % 84 % 1018,9 hPa 0,0 l/m 0,0 km/h (0 Bft) NW 315 11,7 C 14,4 C 0,0 km/h (0 Bft)
20.07.2019 06:06 22,7 C 14,4 C 17,6 C 20,0 C 57 % 84 % 1018,9 hPa 0,0 l/m 0,0 km/h (0 Bft) NW 315 11,7 C 14,4 C 0,0 km/h (0 Bft)
20.07.2019 06:04 22,6 C 14,4 C 17,6 C 20,0 C 57 % 84 % 1018,9 hPa 0,0 l/m 0,0 km/h (0 Bft) NW 315 11,7 C 14,4 C 0,0 km/h (0 Bft)
20.07.2019 06:02 22,6 C 14,4 C 17,6 C 20,0 C 57 % 84 % 1018,9 hPa 0,0 l/m 0,0 km/h (0 Bft) NW 315 11,7 C 14,4 C 0,0 km/h (0 Bft)
20.07.2019 06:00 22,6 C 14,4 C 17,6 C 20,0 C 57 % 84 % 1018,9 hPa 0,0 l/m 0,0 km/h (0 Bft) NW 315 11,7 C 14,4 C 0,0 km/h (0 Bft)
20.07.2019 05:58 22,6 C 14,4 C 17,6 C 20,0 C 57 % 84 % 1019,1 hPa 0,0 l/m 0,0 km/h (0 Bft) NW 315 11,7 C 14,4 C 0,0 km/h (0 Bft)
20.07.2019 05:56 22,6 C 14,4 C 17,5 C 20,0 C 57 % 84 % 1019,1 hPa 0,0 l/m 0,0 km/h (0 Bft) N-NW 337 11,7 C 14,4 C 0,0 km/h (0 Bft)
20.07.2019 05:54 22,7 C 14,4 C 17,5 C 20,1 C 57 % 84 % 1019,1 hPa 0,0 l/m 0,0 km/h (0 Bft) N-NW 337 11,7 C 14,4 C 0,0 km/h (0 Bft)
20.07.2019 05:52 22,6 C 14,4 C 17,4 C 20,1 C 57 % 84 % 1019,1 hPa 0,0 l/m 0,0 km/h (0 Bft) NW 315 11,7 C 14,4 C 0,0 km/h (0 Bft)
20.07.2019 05:50 22,6 C 14,4 C 17,3 C 20,1 C 57 % 84 % 1019,1 hPa 0,0 l/m 0,0 km/h (0 Bft) N-NW 337 11,7 C 14,4 C 0,0 km/h (0 Bft)
20.07.2019 05:48 22,6 C 14,4 C 17,4 C 20,1 C 57 % 84 % 1019,1 hPa 0,0 l/m 0,0 km/h (0 Bft) N-NW 337 11,7 C 14,4 C 0,0 km/h (0 Bft)
20.07.2019 05:46 22,6 C 14,4 C 17,6 C 20,1 C 57 % 84 % 1019,1 hPa 0,0 l/m 0,0 km/h (0 Bft) NW 315 11,7 C 14,4 C 0,0 km/h (0 Bft)
20.07.2019 05:44 22,6 C 14,4 C 17,6 C 20,1 C 57 % 84 % 1019,1 hPa 0,0 l/m 0,0 km/h (0 Bft) N-NW 337 11,7 C 14,4 C 0,0 km/h (0 Bft)
20.07.2019 05:42 22,6 C 14,4 C 17,6 C 20,1 C 57 % 84 % 1019,1 hPa 0,0 l/m 0,0 km/h (0 Bft) N-NW 337 11,7 C 14,4 C 0,0 km/h (0 Bft)
20.07.2019 05:40 22,6 C 14,3 C 17,6 C 20,1 C 57 % 84 % 1019,1 hPa 0,0 l/m 0,0 km/h (0 Bft) N-NW 337 11,6 C 14,3 C 0,0 km/h (0 Bft)
20.07.2019 05:38 22,6 C 14,3 C 17,4 C 20,1 C 57 % 84 % 1018,9 hPa 0,0 l/m 0,0 km/h (0 Bft) N-NW 337 11,6 C 14,3 C 0,0 km/h (0 Bft)
20.07.2019 05:36 22,6 C 14,4 C 17,3 C 20,1 C 57 % 84 % 1018,9 hPa 0,0 l/m 0,0 km/h (0 Bft) N-NW 337 11,7 C 14,4 C 0,0 km/h (0 Bft)
20.07.2019 05:34 22,6 C 14,4 C 17,4 C 20,1 C 57 % 84 % 1018,9 hPa 0,0 l/m 0,0 km/h (0 Bft) N-NW 337 11,7 C 14,4 C 0,0 km/h (0 Bft)
20.07.2019 05:32 22,6 C 14,4 C 17,5 C 20,1 C 57 % 83 % 1018,9 hPa 0,0 l/m 0,0 km/h (0 Bft) N-NW 337 11,5 C 14,4 C 0,0 km/h (0 Bft)
20.07.2019 05:30 22,6 C 14,4 C 17,6 C 20,1 C 57 % 83 % 1018,9 hPa 0,0 l/m 0,0 km/h (0 Bft) N-NO 22 11,5 C 14,4 C 0,0 km/h (0 Bft)
20.07.2019 05:28 22,7 C 14,4 C 17,5 C 20,1 C 57 % 83 % 1018,9 hPa 0,0 l/m 0,0 km/h (0 Bft) O 90 11,5 C 14,4 C 0,0 km/h (0 Bft)
20.07.2019 05:26 22,6 C 14,4 C 17,6 C 20,2 C 57 % 83 % 1018,9 hPa 0,0 l/m 0,0 km/h (0 Bft) W-NW 292 11,5 C 14,4 C 0,0 km/h (0 Bft)
20.07.2019 05:24 22,6 C 14,4 C 17,6 C 20,2 C 57 % 83 % 1018,9 hPa 0,0 l/m 0,0 km/h (0 Bft) W-NW 292 11,5 C 14,4 C 0,0 km/h (0 Bft)
20.07.2019 05:22 22,6 C 14,4 C 17,6 C 20,2 C 57 % 83 % 1018,9 hPa 0,0 l/m 0,0 km/h (0 Bft) O 90 11,5 C 14,4 C 0,0 km/h (0 Bft)
20.07.2019 05:20 22,7 C 14,4 C 17,5 C 20,2 C 57 % 83 % 1018,9 hPa 0,0 l/m 0,0 km/h (0 Bft) O 90 11,5 C 14,4 C 0,0 km/h (0 Bft)
20.07.2019 05:18 22,7 C 14,4 C 17,6 C 20,2 C 57 % 83 % 1018,9 hPa 0,0 l/m 0,0 km/h (0 Bft) S-SW 202 11,5 C 14,4 C 0,0 km/h (0 Bft)
20.07.2019 05:16 22,6 C 14,4 C 17,6 C 20,2 C 57 % 83 % 1018,9 hPa 0,0 l/m 0,0 km/h (0 Bft) SO 135 11,5 C 14,4 C 0,0 km/h (0 Bft)
20.07.2019 05:14 22,6 C 14,4 C 17,6 C 20,2 C 57 % 83 % 1018,9 hPa 0,0 l/m 0,0 km/h (0 Bft) SO 135 11,5 C 14,4 C 0,0 km/h (0 Bft)
20.07.2019 05:12 22,7 C 14,4 C 17,7 C 20,2 C 57 % 83 % 1018,9 hPa 0,0 l/m 0,0 km/h (0 Bft) SO 135 11,5 C 14,4 C 0,0 km/h (0 Bft)
20.07.2019 05:10 22,6 C 14,3 C 17,7 C 20,2 C 57 % 83 % 1018,9 hPa 0,0 l/m 0,0 km/h (0 Bft) S-SW 202 11,5 C 14,3 C 0,0 km/h (0 Bft)
20.07.2019 05:08 22,7 C 14,4 C 17,7 C 20,2 C 57 % 83 % 1018,9 hPa 0,0 l/m 0,0 km/h (0 Bft) SW 225 11,5 C 14,4 C 0,0 km/h (0 Bft)
20.07.2019 05:06 22,6 C 14,4 C 17,6 C 20,2 C 57 % 83 % 1018,9 hPa 0,0 l/m 0,0 km/h (0 Bft) O-NO 67 11,5 C 14,4 C 0,0 km/h (0 Bft)
20.07.2019 05:04 22,7 C 14,4 C 17,6 C 20,2 C 57 % 83 % 1018,9 hPa 0,0 l/m 0,0 km/h (0 Bft) N-NW 337 11,5 C 14,4 C 0,0 km/h (0 Bft)
20.07.2019 05:03 22,6 C 14,5 C 17,6 C 20,2 C 57 % 83 % 1018,9 hPa 0,0 l/m 0,0 km/h (0 Bft) N 360 11,6 C 14,5 C 0,0 km/h (0 Bft)
20.07.2019 05:02 22,7 C 14,5 C 17,6 C 20,2 C 57 % 83 % 1018,9 hPa 0,0 l/m 0,0 km/h (0 Bft) N-NW 337 11,6 C 14,5 C 0,0 km/h (0 Bft)
20.07.2019 04:58 22,7 C 14,5 C 17,5 C 20,3 C 57 % 83 % 1018,8 hPa 0,0 l/m 0,0 km/h (0 Bft) N-NW 337 11,6 C 14,5 C 0,0 km/h (0 Bft)
20.07.2019 04:56 22,6 C 14,5 C 17,4 C 20,3 C 57 % 83 % 1018,8 hPa 0,0 l/m 0,0 km/h (0 Bft) N 360 11,6 C 14,5 C 0,0 km/h (0 Bft)
20.07.2019 04:54 22,7 C 14,5 C 17,4 C 20,3 C 57 % 83 % 1018,8 hPa 0,0 l/m 0,0 km/h (0 Bft) N 360 11,6 C 14,5 C 0,0 km/h (0 Bft)
20.07.2019 04:52 22,7 C 14,5 C 17,4 C 20,3 C 57 % 83 % 1018,8 hPa 0,0 l/m 0,0 km/h (0 Bft) N 360 11,6 C 14,5 C 0,0 km/h (0 Bft)
20.07.2019 04:50 22,7 C 14,5 C 17,5 C 20,3 C 57 % 83 % 1018,8 hPa 0,0 l/m 0,0 km/h (0 Bft) N 360 11,6 C 14,5 C 0,0 km/h (0 Bft)
20.07.2019 04:48 22,7 C 14,5 C 17,6 C 20,3 C 57 % 83 % 1018,8 hPa 0,0 l/m 0,0 km/h (0 Bft) NW 315 11,6 C 14,5 C 0,0 km/h (0 Bft)
20.07.2019 04:46 22,7 C 14,4 C 17,7 C 20,3 C 57 % 83 % 1018,8 hPa 0,0 l/m 0,0 km/h (0 Bft) SO 135 11,5 C 14,4 C 0,0 km/h (0 Bft)
20.07.2019 04:44 22,7 C 14,4 C 17,7 C 20,3 C 57 % 83 % 1018,8 hPa 0,0 l/m 0,0 km/h (0 Bft) S-SO 157 11,5 C 14,4 C 0,0 km/h (0 Bft)
20.07.2019 04:42 22,7 C 14,4 C 17,7 C 20,3 C 57 % 83 % 1018,8 hPa 0,0 l/m 0,0 km/h (0 Bft) N-NO 22 11,5 C 14,4 C 0,0 km/h (0 Bft)
20.07.2019 04:40 22,7 C 14,4 C 17,6 C 20,3 C 57 % 83 % 1018,8 hPa 0,0 l/m 0,0 km/h (0 Bft) O-NO 67 11,5 C 14,4 C 0,0 km/h (0 Bft)
20.07.2019 04:38 22,7 C 14,4 C 17,6 C 20,3 C 57 % 83 % 1018,8 hPa 0,0 l/m 0,0 km/h (0 Bft) O-NO 67 11,5 C 14,4 C 0,0 km/h (0 Bft)
20.07.2019 04:36 22,6 C 14,4 C 17,5 C 20,3 C 57 % 83 % 1018,8 hPa 0,0 l/m 0,0 km/h (0 Bft) N-NO 22 11,5 C 14,4 C 0,0 km/h (0 Bft)
20.07.2019 04:34 22,7 C 14,4 C 17,5 C 20,4 C 57 % 83 % 1018,8 hPa 0,0 l/m 0,0 km/h (0 Bft) N-NW 337 11,5 C 14,4 C 0,0 km/h (0 Bft)
20.07.2019 04:32 22,7 C 14,5 C 17,5 C 20,4 C 57 % 83 % 1018,8 hPa 0,0 l/m 0,0 km/h (0 Bft) N 360 11,6 C 14,5 C 0,0 km/h (0 Bft)
20.07.2019 04:30 22,7 C 14,5 C 17,5 C 20,4 C 57 % 83 % 1018,8 hPa 0,0 l/m 0,0 km/h (0 Bft) NW 315 11,6 C 14,5 C 0,0 km/h (0 Bft)
20.07.2019 04:28 22,7 C 14,5 C 17,6 C 20,4 C 57 % 83 % 1018,8 hPa 0,0 l/m 0,0 km/h (0 Bft) N-NW 337 11,6 C 14,5 C 0,0 km/h (0 Bft)
20.07.2019 04:26 22,7 C 14,5 C 17,6 C 20,4 C 57 % 83 % 1018,8 hPa 0,0 l/m 0,0 km/h (0 Bft) N-NW 337 11,6 C 14,5 C 0,0 km/h (0 Bft)
20.07.2019 04:24 22,7 C 14,5 C 17,6 C 20,4 C 57 % 83 % 1018,8 hPa 0,0 l/m 0,0 km/h (0 Bft) NW 315 11,6 C 14,5 C 0,0 km/h (0 Bft)
20.07.2019 04:22 22,7 C 14,5 C 17,7 C 20,4 C 57 % 82 % 1018,8 hPa 0,0 l/m 0,0 km/h (0 Bft) N-NW 337 11,5 C 14,5 C 0,0 km/h (0 Bft)
20.07.2019 04:20 22,6 C 14,5 C 17,7 C 20,4 C 57 % 82 % 1018,8 hPa 0,0 l/m 0,0 km/h (0 Bft) N-NW 337 11,5 C 14,5 C 0,0 km/h (0 Bft)
20.07.2019 04:18 22,7 C 14,5 C 17,7 C 20,4 C 57 % 82 % 1018,7 hPa 0,0 l/m 0,0 km/h (0 Bft) N 360 11,5 C 14,5 C 0,0 km/h (0 Bft)
20.07.2019 04:16 22,7 C 14,6 C 17,7 C 20,4 C 57 % 82 % 1018,7 hPa 0,0 l/m 0,0 km/h (0 Bft) N-NW 337 11,6 C 14,6 C 0,0 km/h (0 Bft)
20.07.2019 04:14 22,7 C 14,6 C 17,7 C 20,4 C 57 % 82 % 1018,7 hPa 0,0 l/m 0,0 km/h (0 Bft) N-NW 337 11,6 C 14,6 C 0,0 km/h (0 Bft)
20.07.2019 04:12 22,7 C 14,6 C 17,7 C 20,5 C 57 % 82 % 1018,7 hPa 0,0 l/m 0,0 km/h (0 Bft) N-NW 337 11,6 C 14,6 C 0,0 km/h (0 Bft)
20.07.2019 04:10 22,7 C 14,6 C 17,7 C 20,5 C 57 % 82 % 1018,7 hPa 0,0 l/m 0,0 km/h (0 Bft) NW 315 11,6 C 14,6 C 0,0 km/h (0 Bft)
20.07.2019 04:08 22,7 C 14,7 C 17,7 C 20,5 C 57 % 82 % 1018,7 hPa 0,0 l/m 0,0 km/h (0 Bft) NW 315 11,7 C 14,7 C 0,0 km/h (0 Bft)
20.07.2019 04:06 22,7 C 14,7 C 17,6 C 20,5 C 57 % 82 % 1018,7 hPa 0,0 l/m 0,0 km/h (0 Bft) SW 225 11,7 C 14,7 C 0,0 km/h (0 Bft)
20.07.2019 04:04 22,7 C 14,7 C 17,6 C 20,5 C 57 % 82 % 1018,7 hPa 0,0 l/m 0,0 km/h (0 Bft) NW 315 11,7 C 14,7 C 0,0 km/h (0 Bft)
20.07.2019 04:02 22,7 C 14,8 C 17,5 C 20,5 C 57 % 82 % 1018,7 hPa 0,0 l/m 0,0 km/h (0 Bft) NW 315 11,8 C 14,8 C 0,0 km/h (0 Bft)
20.07.2019 04:00 22,7 C 14,8 C 17,5 C 20,5 C 57 % 82 % 1018,7 hPa 0,0 l/m 0,0 km/h (0 Bft) NW 315 11,8 C 14,8 C 0,0 km/h (0 Bft)
20.07.2019 03:58 22,7 C 14,8 C 17,5 C 20,5 C 57 % 82 % 1018,8 hPa 0,0 l/m 0,0 km/h (0 Bft) N-NW 337 11,8 C 14,8 C 0,0 km/h (0 Bft)
20.07.2019 03:56 22,7 C 14,9 C 17,6 C 20,4 C 57 % 82 % 1018,8 hPa 0,0 l/m 0,0 km/h (0 Bft) N-NW 337 11,9 C 14,9 C 0,0 km/h (0 Bft)
20.07.2019 03:54 22,7 C 14,9 C 17,6 C 20,4 C 57 % 82 % 1018,8 hPa 0,0 l/m 0,0 km/h (0 Bft) NW 315 11,9 C 14,9 C 0,0 km/h (0 Bft)
20.07.2019 03:52 22,7 C 15,0 C 17,5 C 20,4 C 57 % 82 % 1018,8 hPa 0,0 l/m 0,0 km/h (0 Bft) N-NO 22 12,0 C 15,0 C 0,0 km/h (0 Bft)
20.07.2019 03:50 22,7 C 15,0 C 17,7 C 20,5 C 57 % 82 % 1018,8 hPa 0,0 l/m 0,0 km/h (0 Bft) N-NW 337 12,0 C 15,0 C 0,0 km/h (0 Bft)
20.07.2019 03:48 22,7 C 15,0 C 17,7 C 20,5 C 57 % 82 % 1018,8 hPa 0,0 l/m 0,0 km/h (0 Bft) NW 315 12,0 C 15,0 C 0,0 km/h (0 Bft)
20.07.2019 03:46 22,7 C 15,0 C 17,7 C 20,5 C 57 % 82 % 1018,8 hPa 0,0 l/m 0,0 km/h (0 Bft) S-SW 202 12,0 C 15,0 C 0,0 km/h (0 Bft)
20.07.2019 03:44 22,7 C 15,0 C 17,7 C 20,5 C 57 % 82 % 1018,8 hPa 0,0 l/m 0,0 km/h (0 Bft) S-SO 157 12,0 C 15,0 C 0,0 km/h (0 Bft)
20.07.2019 03:42 22,7 C 14,9 C 17,7 C 20,5 C 57 % 82 % 1018,8 hPa 0,0 l/m 0,3 km/h (0 Bft) S-SO 157 11,9 C 14,9 C 0,0 km/h (0 Bft)
20.07.2019 03:40 22,7 C 15,0 C 17,7 C 20,5 C 57 % 82 % 1018,8 hPa 0,0 l/m 0,3 km/h (0 Bft) S-SO 157 12,0 C 15,0 C 0,0 km/h (0 Bft)
20.07.2019 03:38 22,7 C 15,0 C 17,7 C 20,5 C 57 % 81 % 1018,8 hPa 0,0 l/m 0,3 km/h (0 Bft) S 180 11,8 C 15,0 C 0,0 km/h (0 Bft)
20.07.2019 03:36 22,7 C 15,0 C 17,7 C 20,5 C 57 % 81 % 1018,8 hPa 0,0 l/m 0,5 km/h (0 Bft) N 360 11,8 C 15,0 C 0,0 km/h (0 Bft)
20.07.2019 03:34 22,7 C 15,0 C 17,7 C 20,5 C 57 % 81 % 1018,8 hPa 0,0 l/m 0,6 km/h (0 Bft) SO 135 11,8 C 15,0 C 2,5 km/h (1 Bft)
20.07.2019 03:32 22,7 C 15,1 C 17,8 C 20,5 C 57 % 81 % 1018,8 hPa 0,0 l/m 0,6 km/h (0 Bft) O-NO 67 11,9 C 15,1 C 2,5 km/h (1 Bft)
20.07.2019 03:30 22,7 C 15,1 C 17,8 C 20,6 C 57 % 81 % 1018,8 hPa 0,0 l/m 0,3 km/h (0 Bft) N-NW 337 11,9 C 15,1 C 0,0 km/h (0 Bft)
20.07.2019 03:28 22,7 C 15,1 C 17,8 C 20,6 C 57 % 81 % 1018,8 hPa 0,0 l/m 0,3 km/h (0 Bft) NW 315 11,9 C 15,1 C 4,6 km/h (1 Bft)
20.07.2019 03:26 22,7 C 15,2 C 17,9 C 20,6 C 57 % 81 % 1018,8 hPa 0,0 l/m 0,3 km/h (0 Bft) NW 315 12,0 C 15,2 C 0,0 km/h (0 Bft)
20.07.2019 03:24 22,7 C 15,2 C 17,9 C 20,6 C 57 % 81 % 1018,8 hPa 0,0 l/m 0,0 km/h (0 Bft) N 360 12,0 C 15,2 C 0,0 km/h (0 Bft)
20.07.2019 03:22 22,7 C 15,2 C 17,9 C 20,6 C 57 % 81 % 1018,8 hPa 0,0 l/m 0,0 km/h (0 Bft) N-NO 22 12,0 C 15,2 C 0,0 km/h (0 Bft)
20.07.2019 03:20 22,7 C 15,2 C 17,9 C 20,6 C 57 % 81 % 1018,8 hPa 0,0 l/m 0,0 km/h (0 Bft) N-NW 337 12,0 C 15,2 C 0,0 km/h (0 Bft)
20.07.2019 03:18 22,7 C 15,2 C 18,0 C 20,6 C 57 % 81 % 1018,8 hPa 0,0 l/m 0,0 km/h (0 Bft) NW 315 12,0 C 15,2 C 0,0 km/h (0 Bft)
20.07.2019 03:16 22,7 C 15,2 C 18,0 C 20,6 C 57 % 81 % 1018,8 hPa 0,0 l/m 0,0 km/h (0 Bft) O-NO 67 12,0 C 15,2 C 0,0 km/h (0 Bft)
20.07.2019 03:14 22,7 C 15,2 C 18,0 C 20,6 C 57 % 81 % 1018,8 hPa 0,0 l/m 0,0 km/h (0 Bft) O-NO 67 12,0 C 15,2 C 0,0 km/h (0 Bft)
20.07.2019 03:12 22,7 C 15,2 C 18,0 C 20,6 C 57 % 81 % 1018,8 hPa 0,0 l/m 0,0 km/h (0 Bft) NO 45 12,0 C 15,2 C 0,0 km/h (0 Bft)
20.07.2019 03:10 22,7 C 15,2 C 18,0 C 20,6 C 57 % 80 % 1018,8 hPa 0,0 l/m 0,0 km/h (0 Bft) O-NO 67 11,8 C 15,2 C 0,0 km/h (0 Bft)
20.07.2019 03:08 22,7 C 15,2 C 17,9 C 20,7 C 57 % 80 % 1018,8 hPa 0,0 l/m 0,0 km/h (0 Bft) NO 45 11,8 C 15,2 C 0,0 km/h (0 Bft)
20.07.2019 03:06 22,7 C 15,3 C 17,9 C 20,7 C 57 % 80 % 1018,8 hPa 0,0 l/m 0,0 km/h (0 Bft) N-NO 22 11,9 C 15,3 C 0,0 km/h (0 Bft)
20.07.2019 03:04 22,7 C 15,3 C 17,9 C 20,7 C 57 % 80 % 1018,8 hPa 0,0 l/m 0,0 km/h (0 Bft) NO 45 11,9 C 15,3 C 0,0 km/h (0 Bft)
20.07.2019 03:02 22,7 C 15,3 C 17,9 C 20,7 C 57 % 80 % 1018,8 hPa 0,0 l/m 0,0 km/h (0 Bft) N-NO 22 11,9 C 15,3 C 0,0 km/h (0 Bft)
20.07.2019 03:00 22,7 C 15,3 C 17,8 C 20,7 C 57 % 80 % 1018,8 hPa 0,0 l/m 0,0 km/h (0 Bft) O-SO 112 11,9 C 15,3 C 0,0 km/h (0 Bft)
20.07.2019 02:58 22,7 C 15,4 C 17,9 C 20,7 C 57 % 80 % 1018,8 hPa 0,0 l/m 0,0 km/h (0 Bft) SO 135 12,0 C 15,4 C 0,0 km/h (0 Bft)
20.07.2019 02:56 22,7 C 15,4 C 17,9 C 20,7 C 57 % 80 % 1018,8 hPa 0,0 l/m 0,0 km/h (0 Bft) W-SW 247 12,0 C 15,4 C 0,0 km/h (0 Bft)
20.07.2019 02:54 22,7 C 15,5 C 17,9 C 20,7 C 57 % 80 % 1018,8 hPa 0,0 l/m 0,0 km/h (0 Bft) N 360 12,1 C 15,5 C 0,0 km/h (0 Bft)
20.07.2019 02:52 22,7 C 15,4 C 18,0 C 20,7 C 57 % 80 % 1018,8 hPa 0,0 l/m 0,0 km/h (0 Bft) N-NW 337 12,0 C 15,4 C 0,0 km/h (0 Bft)
20.07.2019 02:50 22,7 C 15,5 C 18,0 C 20,7 C 57 % 80 % 1018,8 hPa 0,0 l/m 0,0 km/h (0 Bft) N-NW 337 12,1 C 15,5 C 0,0 km/h (0 Bft)
20.07.2019 02:48 22,7 C 15,5 C 18,0 C 20,8 C 57 % 80 % 1018,8 hPa 0,0 l/m 0,0 km/h (0 Bft) NW 315 12,1 C 15,5 C 0,0 km/h (0 Bft)
20.07.2019 02:46 22,7 C 15,6 C 17,9 C 20,8 C 57 % 80 % 1018,8 hPa 0,0 l/m 0,0 km/h (0 Bft) NW 315 12,2 C 15,6 C 0,0 km/h (0 Bft)
20.07.2019 02:44 22,7 C 15,6 C 18,0 C 20,8 C 57 % 79 % 1018,8 hPa 0,0 l/m 0,0 km/h (0 Bft) NW 315 12,0 C 15,6 C 0,0 km/h (0 Bft)
20.07.2019 02:42 22,7 C 15,6 C 18,0 C 20,8 C 57 % 79 % 1018,8 hPa 0,0 l/m 0,0 km/h (0 Bft) NW 315 12,0 C 15,6 C 0,0 km/h (0 Bft)
20.07.2019 02:40 22,7 C 15,6 C 18,0 C 20,8 C 57 % 79 % 1018,8 hPa 0,0 l/m 0,0 km/h (0 Bft) NW 315 12,0 C 15,6 C 0,0 km/h (0 Bft)
20.07.2019 02:38 22,7 C 15,7 C 18,1 C 20,8 C 57 % 79 % 1019,0 hPa 0,0 l/m 0,0 km/h (0 Bft) NW 315 12,1 C 15,7 C 0,0 km/h (0 Bft)
20.07.2019 02:36 22,7 C 15,8 C 18,1 C 20,8 C 57 % 79 % 1019,0 hPa 0,0 l/m 0,0 km/h (0 Bft) NW 315 12,2 C 15,8 C 0,0 km/h (0 Bft)
20.07.2019 02:34 22,7 C 15,8 C 18,1 C 20,8 C 57 % 79 % 1019,0 hPa 0,0 l/m 0,0 km/h (0 Bft) N 360 12,2 C 15,8 C 0,0 km/h (0 Bft)
20.07.2019 02:32 22,7 C 15,9 C 18,1 C 20,8 C 57 % 79 % 1019,0 hPa 0,0 l/m 0,0 km/h (0 Bft) N-NO 22 12,3 C 15,9 C 0,0 km/h (0 Bft)
20.07.2019 02:30 22,7 C 15,9 C 18,1 C 20,9 C 57 % 79 % 1019,0 hPa 0,0 l/m 0,0 km/h (0 Bft) N 360 12,3 C 15,9 C 0,0 km/h (0 Bft)
20.07.2019 02:28 22,7 C 16,0 C 18,1 C 20,9 C 57 % 78 % 1019,0 hPa 0,0 l/m 0,0 km/h (0 Bft) N 360 12,2 C 16,0 C 0,0 km/h (0 Bft)
20.07.2019 02:26 22,7 C 16,1 C 18,2 C 20,9 C 57 % 78 % 1019,0 hPa 0,0 l/m 0,0 km/h (0 Bft) N-NW 337 12,3 C 16,1 C 0,0 km/h (0 Bft)
20.07.2019 02:24 22,7 C 16,1 C 18,1 C 20,9 C 57 % 78 % 1019,0 hPa 0,0 l/m 0,0 km/h (0 Bft) N 360 12,3 C 16,1 C 0,0 km/h (0 Bft)
20.07.2019 02:22 22,7 C 16,2 C 18,1 C 20,9 C 57 % 78 % 1019,0 hPa 0,0 l/m 0,0 km/h (0 Bft) O-NO 67 12,4 C 16,2 C 0,0 km/h (0 Bft)
20.07.2019 02:20 22,7 C 16,2 C 18,1 C 20,9 C 57 % 78 % 1019,0 hPa 0,0 l/m 0,0 km/h (0 Bft) N 360 12,4 C 16,2 C 0,0 km/h (0 Bft)
20.07.2019 02:18 22,7 C 16,2 C 18,1 C 20,9 C 57 % 78 % 1019,1 hPa 0,0 l/m 0,0 km/h (0 Bft) N-NW 337 12,4 C 16,2 C 0,0 km/h (0 Bft)
20.07.2019 02:16 22,7 C 16,2 C 18,1 C 20,9 C 57 % 77 % 1019,1 hPa 0,0 l/m 0,0 km/h (0 Bft) N-NW 337 12,2 C 16,2 C 0,0 km/h (0 Bft)
20.07.2019 02:14 22,7 C 16,2 C 18,0 C 20,9 C 57 % 77 % 1019,1 hPa 0,0 l/m 0,0 km/h (0 Bft) NW 315 12,2 C 16,2 C 0,0 km/h (0 Bft)
20.07.2019 02:12 22,7 C 16,3 C 18,1 C 21,0 C 57 % 77 % 1019,1 hPa 0,0 l/m 0,0 km/h (0 Bft) S 180 12,3 C 16,3 C 0,0 km/h (0 Bft)
20.07.2019 02:10 22,7 C 16,3 C 18,2 C 21,0 C 57 % 77 % 1019,1 hPa 0,0 l/m 0,0 km/h (0 Bft) S-SO 157 12,3 C 16,3 C 0,0 km/h (0 Bft)
20.07.2019 02:08 22,7 C 16,3 C 18,2 C 21,0 C 57 % 77 % 1019,1 hPa 0,0 l/m 0,0 km/h (0 Bft) S-SO 157 12,3 C 16,3 C 0,0 km/h (0 Bft)
20.07.2019 02:06 22,7 C 16,3 C 18,2 C 21,0 C 57 % 77 % 1019,1 hPa 0,0 l/m 0,0 km/h (0 Bft) W 270 12,3 C 16,3 C 0,0 km/h (0 Bft)
20.07.2019 02:04 22,7 C 16,3 C 18,3 C 21,0 C 57 % 76 % 1019,1 hPa 0,0 l/m 0,0 km/h (0 Bft) S-SW 202 12,1 C 16,3 C 0,0 km/h (0 Bft)
20.07.2019 02:02 22,7 C 16,3 C 18,3 C 21,0 C 57 % 76 % 1019,1 hPa 0,0 l/m 0,5 km/h (0 Bft) S-SW 202 12,1 C 16,3 C 0,0 km/h (0 Bft)
20.07.2019 02:00 22,7 C 16,4 C 18,3 C 21,0 C 57 % 76 % 1019,1 hPa 0,0 l/m 0,5 km/h (0 Bft) S-SW 202 12,2 C 16,4 C 0,0 km/h (0 Bft)
20.07.2019 01:58 22,7 C 16,4 C 18,4 C 21,0 C 57 % 76 % 1019,0 hPa 0,0 l/m 0,5 km/h (0 Bft) W-NW 292 12,2 C 16,4 C 0,0 km/h (0 Bft)
20.07.2019 01:56 22,7 C 16,5 C 18,3 C 21,0 C 57 % 76 % 1019,0 hPa 0,0 l/m 0,5 km/h (0 Bft) S-SW 202 12,3 C 16,5 C 0,0 km/h (0 Bft)
20.07.2019 01:54 22,7 C 16,5 C 18,3 C 21,1 C 57 % 76 % 1019,0 hPa 0,0 l/m 0,5 km/h (0 Bft) SO 135 12,3 C 16,5 C 3,5 km/h (1 Bft)
20.07.2019 01:52 22,7 C 16,5 C 18,2 C 21,1 C 57 % 76 % 1019,0 hPa 0,0 l/m 0,2 km/h (0 Bft) SO 135 12,3 C 16,5 C 3,5 km/h (1 Bft)
20.07.2019 01:50 22,7 C 16,6 C 18,3 C 21,1 C 57 % 76 % 1019,0 hPa 0,0 l/m 0,0 km/h (0 Bft) SO 135 12,3 C 16,6 C 0,0 km/h (0 Bft)
20.07.2019 01:48 22,7 C 16,6 C 18,3 C 21,1 C 57 % 76 % 1019,0 hPa 0,0 l/m 0,0 km/h (0 Bft) SO 135 12,3 C 16,6 C 0,0 km/h (0 Bft)
20.07.2019 01:46 22,7 C 16,6 C 18,3 C 21,1 C 57 % 75 % 1019,0 hPa 0,0 l/m 0,0 km/h (0 Bft) SO 135 12,1 C 16,6 C 0,0 km/h (0 Bft)
20.07.2019 01:44 22,7 C 16,7 C 18,4 C 21,1 C 57 % 75 % 1019,0 hPa 0,0 l/m 0,0 km/h (0 Bft) N 360 12,2 C 16,7 C 0,0 km/h (0 Bft)
20.07.2019 01:42 22,7 C 16,8 C 18,4 C 21,1 C 57 % 75 % 1019,0 hPa 0,0 l/m 0,0 km/h (0 Bft) N 360 12,3 C 16,8 C 0,0 km/h (0 Bft)
20.07.2019 01:40 22,7 C 16,8 C 18,4 C 21,1 C 57 % 75 % 1019,0 hPa 0,0 l/m 0,0 km/h (0 Bft) O-NO 67 12,3 C 16,8 C 0,0 km/h (0 Bft)
20.07.2019 01:38 22,7 C 16,9 C 18,4 C 21,1 C 57 % 75 % 1019,1 hPa 0,0 l/m 0,0 km/h (0 Bft) N 360 12,4 C 16,9 C 0,0 km/h (0 Bft)
20.07.2019 01:36 22,7 C 17,0 C 18,4 C 21,1 C 57 % 74 % 1019,1 hPa 0,0 l/m 0,0 km/h (0 Bft) N-NO 22 12,3 C 17,0 C 0,0 km/h (0 Bft)
20.07.2019 01:34 22,7 C 17,1 C 18,4 C 21,1 C 57 % 74 % 1019,1 hPa 0,0 l/m 0,0 km/h (0 Bft) NW 315 12,4 C 17,1 C 0,0 km/h (0 Bft)
20.07.2019 01:32 22,7 C 17,2 C 18,3 C 21,1 C 57 % 74 % 1019,1 hPa 0,0 l/m 0,3 km/h (0 Bft) N-NW 337 12,5 C 17,2 C 0,0 km/h (0 Bft)
20.07.2019 01:30 22,7 C 17,3 C 18,3 C 21,1 C 57 % 74 % 1019,1 hPa 0,0 l/m 0,8 km/h (0 Bft) NW 315 12,6 C 17,3 C 0,0 km/h (0 Bft)
20.07.2019 01:28 22,7 C 17,3 C 18,3 C 21,1 C 57 % 74 % 1019,1 hPa 0,0 l/m 1,0 km/h (0 Bft) S-SO 157 12,6 C 17,3 C 0,0 km/h (0 Bft)
20.07.2019 01:26 22,7 C 17,4 C 18,3 C 21,1 C 57 % 74 % 1019,1 hPa 0,0 l/m 1,0 km/h (0 Bft) SO 135 12,7 C 17,4 C 0,0 km/h (0 Bft)
20.07.2019 01:24 22,7 C 17,4 C 18,2 C 21,1 C 57 % 74 % 1019,1 hPa 0,0 l/m 1,0 km/h (0 Bft) S-SO 157 12,7 C 17,4 C 3,3 km/h (1 Bft)
20.07.2019 01:22 22,7 C 17,4 C 18,3 C 21,1 C 57 % 74 % 1019,1 hPa 0,0 l/m 1,0 km/h (0 Bft) O 90 12,7 C 17,4 C 3,3 km/h (1 Bft)
20.07.2019 01:20 22,7 C 17,4 C 18,2 C 21,1 C 57 % 74 % 1019,1 hPa 0,0 l/m 0,5 km/h (0 Bft) SO 135 12,7 C 17,4 C 3,1 km/h (1 Bft)
20.07.2019 01:18 22,7 C 17,5 C 18,3 C 21,2 C 57 % 74 % 1018,9 hPa 0,0 l/m 0,2 km/h (0 Bft) SO 135 12,8 C 17,5 C 0,0 km/h (0 Bft)
20.07.2019 01:16 22,7 C 17,5 C 18,3 C 21,2 C 57 % 74 % 1018,9 hPa 0,0 l/m 0,2 km/h (0 Bft) SO 135 12,8 C 17,5 C 0,0 km/h (0 Bft)
20.07.2019 01:14 22,7 C 17,5 C 18,2 C 21,2 C 57 % 74 % 1018,9 hPa 0,0 l/m 0,2 km/h (0 Bft) SO 135 12,8 C 17,5 C 0,0 km/h (0 Bft)
20.07.2019 01:12 22,7 C 17,5 C 18,3 C 21,2 C 57 % 73 % 1018,9 hPa 0,0 l/m 0,2 km/h (0 Bft) S-SO 157 12,6 C 17,5 C 0,0 km/h (0 Bft)
20.07.2019 01:10 22,7 C 17,6 C 18,3 C 21,2 C 57 % 73 % 1018,9 hPa 0,0 l/m 0,2 km/h (0 Bft) O 90 12,7 C 17,6 C 0,0 km/h (0 Bft)
20.07.2019 01:08 22,8 C 17,6 C 18,3 C 21,2 C 57 % 73 % 1018,9 hPa 0,0 l/m 0,3 km/h (0 Bft) S-SO 157 12,7 C 17,6 C 4,1 km/h (1 Bft)
20.07.2019 01:06 22,7 C 17,6 C 18,4 C 21,2 C 57 % 73 % 1018,9 hPa 0,0 l/m 0,3 km/h (0 Bft) S-SO 157 12,7 C 17,6 C 0,0 km/h (0 Bft)
20.07.2019 01:04 22,7 C 17,7 C 18,5 C 21,2 C 57 % 73 % 1018,9 hPa 0,0 l/m 0,3 km/h (0 Bft) S-SO 157 12,8 C 17,7 C 0,0 km/h (0 Bft)
20.07.2019 01:02 22,7 C 17,7 C 18,4 C 21,2 C 57 % 73 % 1018,9 hPa 0,0 l/m 0,5 km/h (0 Bft) S-SW 202 12,8 C 17,7 C 0,0 km/h (0 Bft)
20.07.2019 01:00 22,7 C 17,7 C 18,3 C 21,3 C 57 % 73 % 1018,9 hPa 0,0 l/m 0,5 km/h (0 Bft) W-SW 247 12,8 C 17,7 C 4,1 km/h (1 Bft)
20.07.2019 00:58 22,7 C 17,7 C 18,5 C 21,3 C 57 % 73 % 1018,9 hPa 0,0 l/m 0,5 km/h (0 Bft) S-SO 157 12,8 C 17,7 C 4,1 km/h (1 Bft)
20.07.2019 00:56 22,7 C 17,7 C 18,5 C 21,3 C 57 % 73 % 1018,9 hPa 0,0 l/m 0,3 km/h (0 Bft) O 90 12,8 C 17,7 C 1,9 km/h (1 Bft)
20.07.2019 00:54 22,8 C 17,7 C 18,5 C 21,3 C 57 % 73 % 1018,9 hPa 0,0 l/m 0,3 km/h (0 Bft) S-SO 157 12,8 C 17,7 C 2,1 km/h (1 Bft)
20.07.2019 00:52 22,7 C 17,7 C 18,6 C 21,3 C 57 % 73 % 1018,9 hPa 0,0 l/m 0,2 km/h (0 Bft) S 180 12,8 C 17,7 C 2,1 km/h (1 Bft)
20.07.2019 00:50 22,7 C 17,8 C 18,6 C 21,3 C 57 % 73 % 1018,9 hPa 0,0 l/m 0,2 km/h (0 Bft) S 180 12,9 C 17,8 C 0,0 km/h (0 Bft)
20.07.2019 00:48 22,8 C 17,8 C 18,7 C 21,4 C 57 % 73 % 1018,9 hPa 0,0 l/m 0,0 km/h (0 Bft) SO 135 12,9 C 17,8 C 0,0 km/h (0 Bft)
20.07.2019 00:46 22,8 C 17,8 C 18,7 C 21,4 C 57 % 73 % 1018,9 hPa 0,0 l/m 0,0 km/h (0 Bft) SO 135 12,9 C 17,8 C 0,0 km/h (0 Bft)
20.07.2019 00:44 22,8 C 17,8 C 18,7 C 21,4 C 57 % 73 % 1018,9 hPa 0,0 l/m 0,0 km/h (0 Bft) SO 135 12,9 C 17,8 C 0,0 km/h (0 Bft)
20.07.2019 00:42 22,8 C 17,8 C 18,7 C 21,4 C 57 % 73 % 1018,9 hPa 0,0 l/m 0,0 km/h (0 Bft) SO 135 12,9 C 17,8 C 0,0 km/h (0 Bft)
20.07.2019 00:40 22,8 C 17,8 C 18,7 C 21,4 C 57 % 73 % 1018,9 hPa 0,0 l/m 0,0 km/h (0 Bft) SO 135 12,9 C 17,8 C 0,0 km/h (0 Bft)
20.07.2019 00:38 22,8 C 17,8 C 18,8 C 21,4 C 57 % 73 % 1019,0 hPa 0,0 l/m 0,0 km/h (0 Bft) SO 135 12,9 C 17,8 C 0,0 km/h (0 Bft)
20.07.2019 00:36 22,8 C 17,8 C 19,0 C 21,4 C 57 % 73 % 1019,0 hPa 0,0 l/m 0,0 km/h (0 Bft) S-SW 202 12,9 C 17,8 C 0,0 km/h (0 Bft)
20.07.2019 00:34 22,8 C 17,8 C 19,0 C 21,4 C 57 % 72 % 1019,0 hPa 0,0 l/m 0,0 km/h (0 Bft) SW 225 12,7 C 17,8 C 0,0 km/h (0 Bft)
20.07.2019 00:32 22,8 C 17,8 C 19,0 C 21,4 C 57 % 72 % 1019,0 hPa 0,0 l/m 0,0 km/h (0 Bft) S-SW 202 12,7 C 17,8 C 0,0 km/h (0 Bft)
20.07.2019 00:30 22,8 C 17,9 C 19,0 C 21,4 C 57 % 72 % 1019,0 hPa 0,0 l/m 0,0 km/h (0 Bft) W-SW 247 12,8 C 17,9 C 0,0 km/h (0 Bft)
20.07.2019 00:28 22,8 C 17,9 C 19,0 C 21,4 C 57 % 72 % 1019,0 hPa 0,0 l/m 0,0 km/h (0 Bft) W-NW 292 12,8 C 17,9 C 0,0 km/h (0 Bft)
20.07.2019 00:26 22,8 C 18,0 C 19,1 C 21,4 C 57 % 71 % 1019,0 hPa 0,0 l/m 0,0 km/h (0 Bft) N 360 12,7 C 18,0 C 0,0 km/h (0 Bft)
20.07.2019 00:24 22,8 C 18,1 C 19,2 C 21,4 C 57 % 71 % 1019,0 hPa 0,0 l/m 0,0 km/h (0 Bft) N-NW 337 12,8 C 18,1 C 0,0 km/h (0 Bft)
20.07.2019 00:22 22,8 C 18,1 C 19,2 C 21,5 C 57 % 71 % 1019,0 hPa 0,0 l/m 0,0 km/h (0 Bft) NW 315 12,8 C 18,1 C 0,0 km/h (0 Bft)
20.07.2019 00:20 22,8 C 18,1 C 19,2 C 21,5 C 57 % 71 % 1019,0 hPa 0,0 l/m 0,0 km/h (0 Bft) O-NO 67 12,8 C 18,1 C 0,0 km/h (0 Bft)
20.07.2019 00:18 22,8 C 18,2 C 19,3 C 21,5 C 57 % 71 % 1019,2 hPa 0,0 l/m 0,0 km/h (0 Bft) N 360 12,9 C 18,2 C 0,0 km/h (0 Bft)
20.07.2019 00:16 22,8 C 18,2 C 19,3 C 21,5 C 57 % 71 % 1019,2 hPa 0,0 l/m 0,0 km/h (0 Bft) N-NO 22 12,9 C 18,2 C 0,0 km/h (0 Bft)
20.07.2019 00:14 22,8 C 18,3 C 19,3 C 21,5 C 57 % 70 % 1019,2 hPa 0,0 l/m 0,0 km/h (0 Bft) O 90 12,7 C 18,3 C 0,0 km/h (0 Bft)
20.07.2019 00:12 22,8 C 18,4 C 19,3 C 21,5 C 57 % 70 % 1019,2 hPa 0,0 l/m 0,0 km/h (0 Bft) NO 45 12,8 C 18,4 C 0,0 km/h (0 Bft)
20.07.2019 00:10 22,8 C 18,4 C 19,3 C 21,5 C 57 % 70 % 1019,2 hPa 0,0 l/m 0,0 km/h (0 Bft) N 360 12,8 C 18,4 C 0,0 km/h (0 Bft)
20.07.2019 00:08 22,8 C 18,5 C 19,3 C 21,5 C 57 % 70 % 1019,2 hPa 0,0 l/m 0,0 km/h (0 Bft) O-NO 67 12,9 C 18,5 C 0,0 km/h (0 Bft)
20.07.2019 00:06 22,8 C 18,6 C 19,3 C 21,6 C 57 % 70 % 1019,2 hPa 0,0 l/m 0,0 km/h (0 Bft) N 360 13,0 C 18,6 C 0,0 km/h (0 Bft)
20.07.2019 00:04 22,8 C 18,7 C 19,3 C 21,6 C 57 % 70 % 1019,2 hPa 0,0 l/m 0,0 km/h (0 Bft) N 360 13,1 C 18,7 C 0,0 km/h (0 Bft)
20.07.2019 00:02 22,8 C 18,7 C 19,4 C 21,6 C 57 % 70 % 1019,2 hPa 0,0 l/m 0,0 km/h (0 Bft) N-NW 337 13,1 C 18,7 C 0,0 km/h (0 Bft)
20.07.2019 00:00 22,8 C 18,7 C 19,4 C 21,6 C 57 % 70 % 1019,2 hPa 0,0 l/m 0,2 km/h (0 Bft) N 360 13,1 C 18,7 C 0,0 km/h (0 Bft)
_ Min-Zeit 04:20 05:10 05:36 07:16 00:00 09:24 04:00 - 00:02 - - 05:10 05:10 00:00
Minimum _ 22,6 C 14,3 C 17,3 C 19,8 C 57 % 61 % 1018,7 hPa - 0,0 km/h (0 Bft) - - 11,5 C 14,3 C 0,0 km/h (0 Bft)
_ Max-Zeit 00:00 09:30 09:26 00:00 08:16 06:24 08:20 00:00 08:10 - - 09:06 09:30 08:08
Maximum _ 22,8 C 22,7 C 28,2 C 21,6 C 59 % 85 % 1020,0 hPa 0,0 l/m 2,3 km/h
W-SW (1 Bft)
- - 15,5 C 22,7 C 6,0 km/h
S-SO (2 Bft)
Durchschnitt _ 22,7 C 16,6 C 19,0 C 20,5 C 57 % 78 % 1019,1 hPa #0,0 l/m 0,2 km/h (0 Bft) SO - 12,7 C 16,6 C 0,5 km/h (0 Bft)